[Iaude] MPEC Y16: 2019 YE [a=1.17,e=0.36,i=10.7,H=26.5]

mpec at marsden.cfa.harvard.edu mpec at marsden.cfa.harvard.edu
Thu Dec 19 10:46:30 EST 2019


M.P.E.C. 2019-Y16                             Issued 2019 December 19, 15:44 UT

     The Minor Planet Electronic Circulars contain information on unusual
         minor planets and routine data on comets.  They are published
    on behalf of Division F of the International Astronomical Union by the
          Minor Planet Center, Smithsonian Astrophysical Observatory,
                          Cambridge, MA 02138, U.S.A.

             Prepared using the Tamkin Foundation Computer Network

                              MPC at CFA.HARVARD.EDU
            URL https://www.minorplanetcenter.net/    ISSN 1523-6714

                                    2019 YE                                     


Observations:
     K19Y00E* C2019 12 17.22890 03 42 45.01 +23 15 55.4          20.6 GVEY016G96
     K19Y00E  C2019 12 17.23404 03 42 49.32 +23 14 45.6          21.3 GVEY016G96
     K19Y00E  C2019 12 17.23917 03 42 53.66 +23 13 35.2                VEY016G96
     K19Y00E  C2019 12 17.24430 03 42 58.02 +23 12 25.2          20.4 GVEY016G96
     K19Y00E  C2019 12 17.36260 03 44 37.13 +22 45 41.7                VEY016I52
     K19Y00E  C2019 12 17.36504 03 44 39.21 +22 45 08.9          20.5 GVEY016I52
     K19Y00E  C2019 12 17.36747 03 44 41.22 +22 44 36.0          19.8 GVEY016I52
     K19Y00E  C2019 12 17.36990 03 44 43.38 +22 44 04.0          21.2 GVEY016I52
     K19Y00E  C2019 12 19.29492 04 06 25.50 +17 07 02.3                VEY016G96
     K19Y00E  C2019 12 19.29544 04 06 25.79 +17 06 58.3          21.5 GVEY016G96
     K19Y00E  C2019 12 19.29648 04 06 26.23 +17 06 49.4          21.7 GVEY016G96

Observer details:
G96 Mt. Lemmon Survey.  Observers H. Groeller, G. J. Leonard.  Measurers E. J. 
   Christensen, G. A. Farneth, D. C. Fuls, A. R. Gibbs, A. D. Grauer, H. 
   Groeller, R. A. Kowalski, S. M. Larson, G. J. Leonard, T. A. Pruyne, D. 
   Rankin, R. L. Seaman, F. C. Shelly, K. W. Wierzchos.  1.5-m reflector + 10K 
   CCD.
I52 Steward Observatory, Mt. Lemmon Station.  Observer K. W. Wierzchos.  
    Measurers E. J. Christensen, G. A. Farneth, D. C. Fuls, A. R. Gibbs, A. D. 
   Grauer, H. Groeller, R. A. Kowalski, S. M. Larson, G. J. Leonard, T. A. 
   Pruyne, D. Rankin, R. L. Seaman, F. C. Shelly, K. W. Wierzchos.  1.0-m 
   reflector + CCD.

Orbital elements:
2019 YE                                                  Earth MOID = 0.0044 AU
Epoch 2020 May 31.0 TT = JDT 2459000.5                  Pan
M 178.96661              (2000.0)            P               Q
n   0.77678119     Peri.   88.16664     +0.97431212     +0.12906679
a   1.1720251      Node   264.38579     -0.19109189     +0.90743201
e   0.3627751      Incl.   10.68659     +0.11916284     +0.39988613
P   1.27           H   26.5           G   0.15           U   8
Residuals in seconds of arc
191217 G96  0.4+  0.1+    191217 I52  0.6-  0.1-    191219 G96  0.3-  0.2-
191217 G96  0.2-  0.3+    191217 I52  0.1-  0.1-    191219 G96  0.4+  0.2+
191217 G96  0.3-  0.2-    191217 I52  0.5-  0.2-    191219 G96  0.1-  0.0
191217 G96  0.1+  0.3-    191217 I52  1.2+  0.5+

Ephemeris:
2019 YE                  a,e,i = 1.17, 0.36, 11                  q = 0.7468
Date    TT    R. A. (2000) Decl.     Delta      r    Elong.  Phase     V
2019 11 19    17 25 25.7 +06 36 17   0.1739  0.8571    37.5   135.4    28.6
...
2019 12 04    18 08 27.5 +19 26 42   0.06405 0.9432    47.0   130.2    26.1
...
2019 12 12    23 09 31.3 +51 22 23   0.02468 0.9921   107.1    71.5    20.9
...
2019 12 18    03 53 16.8 +20 37 17   0.04966 1.0292   155.1    23.8    21.2
2019 12 19    04 03 51.2 +17 50 11   0.05619 1.0354   155.8    22.9    21.4
2019 12 20    04 12 01.0 +15 37 11   0.06294 1.0416   155.9    22.7    21.7
...
2019 12 26    04 38 01.0 +08 32 10   0.1060  1.0785   152.3    25.1    22.9
...
2020 01 03    04 52 57.0 +05 21 11   0.1676  1.1268   146.5    28.8    24.1
...
2020 01 18    05 10 20.7 +04 18 51   0.2933  1.2133   136.5    34.0    25.7

A. U. Tomatic                (C) Copyright 2019 MPC           M.P.E.C. 2019-Y16




More information about the Iaude mailing list